StationID,Date,MaxTemp,MinTemp,Precipitation,Snowfall,SnowDepth
"CA004057122","2004-11-02",,,0.00,0.00,
"CA004057122","2004-11-03",,,,,0.00
"CA004057122","2004-11-09",,,0.00,0.00,
"CA004057122","2004-11-10",,,0.00,0.00,0.00
"CA004057122","2004-11-11",,,0.00,0.00,0.00
"CA004057122","2004-11-12",,,,,0.00
"CA004057122","2004-11-13",,,0.00,0.00,
"CA004057122","2004-11-14",,,0.00,0.00,0.00
"CA004057122","2004-11-15",,,0.00,0.00,0.00
"CA004057122","2004-11-16",,,0.00,0.00,0.00
"CA004057122","2004-11-17",,,0.00,0.00,0.00
"CA004057122","2004-11-18",,,,,0.00
"CA004057122","2004-11-24",,,0.00,0.00,
"CA004057122","2004-11-25",,,,,0.00
"CA004057122","2004-11-26",,,0.00,0.00,
"CA004057122","2004-11-27",,,0.00,0.00,0.00
"CA004057122","2004-11-28",,,0.00,0.00,0.00
"CA004057122","2004-11-29",,,0.00,0.00,0.00
"CA004057122","2004-11-30",,,10.00,10.00,0.00
"CA004057122","2004-12-01",,,1.00,1.00,10.00
"CA004057122","2004-12-02",,,1.00,1.00,10.00
"CA004057122","2004-12-03",,,0.00,0.00,10.00
"CA004057122","2004-12-04",,,1.00,1.00,0.00
"CA004057122","2004-12-05",,,50.00,50.00,1.00
"CA004057122","2004-12-06",,,5.00,5.00,50.00
"CA004057122","2004-12-07",,,0.00,0.00,50.00
"CA004057122","2004-12-08",,,10.00,10.00,50.00
"CA004057122","2004-12-09",,,1.00,1.00,60.00
"CA004057122","2004-12-10",,,0.00,0.00,60.00
"CA004057122","2004-12-11",,,0.00,0.00,60.00
"CA004057122","2004-12-12",,,0.00,0.00,60.00
"CA004057122","2004-12-13",,,0.00,0.00,60.00
"CA004057122","2004-12-14",,,0.00,0.00,50.00
"CA004057122","2004-12-15",,,,,50.00
"CA004057122","2004-12-17",,,0.00,0.00,
"CA004057122","2004-12-18",,,0.00,0.00,30.00
"CA004057122","2004-12-19",,,1.00,1.00,30.00
"CA004057122","2004-12-20",,,50.00,50.00,20.00
"CA004057122","2004-12-21",,,0.00,0.00,70.00
"CA004057122","2004-12-22",,,,,70.00
"CA004057122","2005-01-02",,,1.00,1.00,
"CA004057122","2005-01-03",,,0.00,0.00,180.00
"CA004057122","2005-01-04",,,0.00,0.00,180.00
"CA004057122","2005-01-05",,,,,180.00
"CA004057122","2005-01-06",,,15.00,15.00,
"CA004057122","2005-01-07",,,10.00,10.00,200.00
"CA004057122","2005-01-08",,,30.00,30.00,210.00
"CA004057122","2005-01-09",,,0.00,0.00,240.00
"CA004057122","2005-01-10",,,0.00,0.00,240.00
"CA004057122","2005-01-11",,,0.00,0.00,240.00
"CA004057122","2005-01-12",,,30.00,30.00,240.00
"CA004057122","2005-01-13",,,0.00,0.00,270.00
"CA004057122","2005-01-14",,,0.00,0.00,270.00
"CA004057122","2005-01-15",,,0.00,0.00,270.00
"CA004057122","2005-01-16",,,0.00,0.00,270.00
"CA004057122","2005-01-17",,,5.00,0.00,270.00
"CA004057122","2005-01-18",,,2.00,2.00,220.00
"CA004057122","2005-01-19",,,50.00,50.00,240.00
"CA004057122","2005-01-20",,,,,290.00
"CA004057122","2005-01-21",,,0.00,0.00,
"CA004057122","2005-01-22",,,0.00,0.00,380.00
"CA004057122","2005-01-23",,,0.00,0.00,380.00
"CA004057122","2005-01-24",,,0.00,0.00,380.00
"CA004057122","2005-01-25",,,1.00,1.00,380.00
"CA004057122","2005-01-26",,,0.00,0.00,380.00
"CA004057122","2005-01-27",,,0.00,0.00,380.00
"CA004057122","2005-01-28",,,0.00,0.00,380.00
"CA004057122","2005-01-29",,,0.00,0.00,380.00
"CA004057122","2005-01-30",,,0.00,0.00,370.00
"CA004057122","2005-01-31",,,0.00,0.00,360.00
"CA004057122","2005-02-01",,,0.00,0.00,350.00
"CA004057122","2005-02-02",,,0.00,0.00,300.00
"CA004057122","2005-02-03",,,0.00,0.00,280.00
"CA004057122","2005-02-04",,,70.00,70.00,270.00
"CA004057122","2005-02-05",,,5.00,5.00,340.00
"CA004057122","2005-02-06",,,0.00,0.00,340.00
"CA004057122","2005-02-07",,,0.00,0.00,340.00
"CA004057122","2005-02-08",,,0.00,0.00,340.00
"CA004057122","2005-02-09",,,0.00,0.00,340.00
"CA004057122","2005-02-10",,,,,340.00
"CA004057122","2005-02-11",,,0.00,0.00,
"CA004057122","2005-02-12",,,0.00,0.00,340.00
"CA004057122","2005-02-13",,,1.00,1.00,330.00
"CA004057122","2005-02-14",,,10.00,10.00,330.00
"CA004057122","2005-02-15",,,0.00,0.00,340.00
"CA004057122","2005-02-16",,,0.00,0.00,340.00
"CA004057122","2005-02-17",,,1.00,1.00,310.00
"CA004057122","2005-02-18",,,10.00,10.00,310.00
"CA004057122","2005-02-19",,,0.00,0.00,320.00
"CA004057122","2005-02-20",,,1.00,1.00,320.00
"CA004057122","2005-02-21",,,1.00,1.00,320.00
"CA004057122","2005-02-22",,,0.00,0.00,320.00
"CA004057122","2005-02-23",,,0.00,0.00,320.00
"CA004057122","2005-02-24",,,0.00,0.00,320.00
"CA004057122","2005-02-25",,,0.00,0.00,270.00
"CA004057122","2005-02-26",,,0.00,0.00,270.00
"CA004057122","2005-02-27",,,,,250.00
"CA004057122","2005-02-28",,,0.00,0.00,
"CA004057122","2005-03-01",,,0.00,0.00,240.00
"CA004057122","2005-03-02",,,0.00,0.00,230.00
"CA004057122","2005-03-03",,,0.00,0.00,230.00
"CA004057122","2005-03-04",,,0.00,0.00,220.00
"CA004057122","2005-03-05",,,,,200.00
"CA004057122","2005-03-06",,,1.00,1.00,
"CA004057122","2005-03-07",,,22.00,11.00,190.00
"CA004057122","2005-03-08",,,0.00,0.00,200.00
"CA004057122","2005-03-09",,,0.00,0.00,200.00
"CA004057122","2005-03-10",,,,,150.00
"CA004057122","2005-03-11",,,1.00,1.00,
"CA004057122","2005-03-12",,,0.00,0.00,150.00
"CA004057122","2005-03-13",,,1.00,1.00,150.00
"CA004057122","2005-03-14",,,20.00,20.00,150.00
"CA004057122","2005-03-15",,,0.00,0.00,20.00
"CA004057122","2005-03-16",,,22.00,22.00,170.00
"CA004057122","2005-03-17",,,10.00,10.00,190.00
"CA004057122","2005-03-18",,,0.00,0.00,200.00
"CA004057122","2005-03-19",,,,,200.00
"CA004057122","2005-03-20",,,30.00,30.00,
"CA004057122","2005-03-21",,,30.00,30.00,200.00
"CA004057122","2005-03-22",,,1.00,1.00,240.00
"CA004057122","2005-03-23",,,,,220.00
"CA004057122","2005-03-24",,,0.00,0.00,
"CA004057122","2005-03-25",,,0.00,0.00,220.00
"CA004057122","2005-03-26",,,0.00,0.00,220.00
"CA004057122","2005-03-27",,,,,210.00
"CA004057122","2005-03-28",,,0.00,0.00,
"CA004057122","2005-03-29",,,0.00,0.00,80.00
"CA004057122","2005-03-30",,,0.00,0.00,100.00
"CA004057122","2005-03-31",,,0.00,0.00,100.00
"CA004057122","2005-04-01",,,0.00,0.00,40.00
"CA004057122","2005-04-02",,,0.00,0.00,100.00
"CA004057122","2005-04-03",,,0.00,0.00,100.00
"CA004057122","2005-04-04",,,0.00,0.00,110.00
"CA004057122","2005-04-05",,,,,100.00
"CA004057122","2005-04-08",,,0.00,0.00,
"CA004057122","2005-04-09",,,0.00,0.00,0.00
"CA004057122","2005-04-10",,,,,0.00
"CA004057122","2005-04-11",,,0.00,0.00,
"CA004057122","2005-04-12",,,,,0.00
"CA004057122","2005-04-14",,,0.00,0.00,
"CA004057122","2005-04-15",,,,,0.00
"CA004057122","2005-04-29",,,1.00,1.00,
"CA004057122","2005-04-30",,,,,0.00
"CA004057122","2005-11-04",,,10.00,10.00,
"CA004057122","2005-11-05",,,0.00,0.00,20.00
"CA004057122","2005-11-06",,,0.00,0.00,10.00
"CA004057122","2005-11-07",,,0.00,0.00,10.00
"CA004057122","2005-11-08",,,,,0.00
"CA004057122","2005-11-10",,,0.00,0.00,
"CA004057122","2005-11-11",,,0.00,0.00,0.00
"CA004057122","2005-11-12",,,0.00,0.00,0.00
"CA004057122","2005-11-13",,,10.00,10.00,0.00
"CA004057122","2005-11-14",,,1.00,1.00,10.00
"CA004057122","2005-11-15",,,,,20.00
"CA004057122","2005-11-23",,,0.00,0.00,
"CA004057122","2005-11-24",,,,,0.00
"CA004057122","2005-11-25",,,0.00,0.00,
"CA004057122","2005-11-26",,,0.00,0.00,0.00
"CA004057122","2005-11-27",,,0.00,0.00,0.00
"CA004057122","2005-11-28",,,0.00,0.00,0.00
"CA004057122","2005-11-29",,,,,0.00
"CA004057122","2005-12-01",,,15.00,15.00,
"CA004057122","2005-12-02",,,0.00,0.00,10.00
"CA004057122","2005-12-03",,,11.00,11.00,20.00
"CA004057122","2005-12-04",,,1.00,1.00,30.00
"CA004057122","2005-12-05",,,15.00,15.00,30.00
"CA004057122","2005-12-06",,,0.00,0.00,50.00
"CA004057122","2005-12-07",,,,,50.00
"CA004057122","2005-12-09",,,0.00,0.00,
"CA004057122","2005-12-10",,,0.00,0.00,0.00
"CA004057122","2005-12-11",,,0.00,0.00,0.00
"CA004057122","2005-12-12",,,0.00,0.00,0.00
"CA004057122","2005-12-13",,,0.00,0.00,0.00
"CA004057122","2005-12-14",,,10.00,10.00,0.00
"CA004057122","2005-12-15",,,0.00,0.00,40.00
"CA004057122","2005-12-16",,,0.00,0.00,40.00
"CA004057122","2005-12-17",,,0.00,0.00,40.00
"CA004057122","2005-12-18",,,0.00,0.00,40.00
"CA004057122","2005-12-19",,,0.00,0.00,100.00
"CA004057122","2005-12-20",,,0.00,0.00,100.00
"CA004057122","2005-12-21",,,0.00,0.00,90.00
"CA004057122","2005-12-22",,,,,30.00
"CA004057122","2006-01-02",,,0.00,0.00,
"CA004057122","2006-01-03",,,10.00,10.00,30.00
"CA004057122","2006-01-04",,,0.00,0.00,40.00
"CA004057122","2006-01-05",,,0.00,0.00,40.00
"CA004057122","2006-01-06",,,0.00,0.00,40.00
"CA004057122","2006-01-07",,,5.00,5.00,40.00
"CA004057122","2006-01-08",,,0.00,0.00,50.00
"CA004057122","2006-01-09",,,0.00,0.00,50.00
"CA004057122","2006-01-10",,,5.00,5.00,40.00
"CA004057122","2006-01-11",,,0.00,0.00,50.00
"CA004057122","2006-01-12",,,1.00,1.00,40.00
"CA004057122","2006-01-13",,,0.00,0.00,110.00
"CA004057122","2006-01-14",,,1.00,1.00,110.00
"CA004057122","2006-01-15",,,,,110.00
"CA004057122","2006-01-16",,,0.00,0.00,
"CA004057122","2006-01-17",,,0.00,0.00,140.00
"CA004057122","2006-01-18",,,,,140.00
"CA004057122","2006-01-20",,,50.00,50.00,
"CA004057122","2006-01-21",,,,,230.00
"CA004057122","2006-01-22",,,0.00,0.00,
"CA004057122","2006-01-23",,,,,150.00
"CA004057122","2006-01-24",,,0.00,0.00,
"CA004057122","2006-01-25",,,0.00,0.00,160.00
"CA004057122","2006-01-26",,,0.00,0.00,160.00
"CA004057122","2006-01-27",,,0.00,0.00,160.00
"CA004057122","2006-01-28",,,0.00,0.00,140.00
"CA004057122","2006-01-29",,,0.00,0.00,160.00
"CA004057122","2006-01-30",,,0.00,0.00,150.00
"CA004057122","2006-01-31",,,0.00,0.00,150.00
"CA004057122","2006-02-01",,,,,150.00
"CA004057122","2006-02-02",,,20.00,20.00,
"CA004057122","2006-02-03",,,0.00,0.00,210.00
"CA004057122","2006-02-04",,,30.00,30.00,180.00
"CA004057122","2006-02-05",,,0.00,0.00,210.00
"CA004057122","2006-02-06",,,0.00,0.00,210.00
"CA004057122","2006-02-07",,,0.00,0.00,210.00
"CA004057122","2006-02-08",,,0.00,0.00,210.00
"CA004057122","2006-02-09",,,,,230.00
"CA004057122","2006-02-19",,,0.00,0.00,
"CA004057122","2006-02-20",,,2.00,2.00,220.00
"CA004057122","2006-02-21",,,1.00,1.00,220.00
"CA004057122","2006-02-22",,,0.00,0.00,250.00
"CA004057122","2006-02-23",,,0.00,0.00,250.00
"CA004057122","2006-02-24",,,0.00,0.00,250.00
"CA004057122","2006-02-25",,,0.00,0.00,250.00
"CA004057122","2006-02-26",,,,,250.00
"CA004057122","2006-02-28",,,20.00,20.00,
"CA004057122","2006-03-01",,,,,280.00
"CA004057122","2006-03-23",,,0.00,0.00,
"CA004057122","2006-03-24",,,,,120.00
"CA004057122","2006-03-30",,,0.00,0.00,
"CA004057122","2006-03-31",,,,,50.00
"CA004057122","2006-04-02",,,0.00,0.00,
"CA004057122","2006-04-03",,,0.00,0.00,150.00
"CA004057122","2006-04-04",,,0.00,0.00,150.00
"CA004057122","2006-04-05",,,0.00,0.00,0.00
"CA004057122","2006-04-06",,,,,0.00
